Weather History for Fort Wayne, IN

Change the Weather History Date:

Friday, November 7, 2014

  Actual Average Record
Temperature  
Mean Temperature 38 °F 45 °F  
Max Temperature 43 °F 54 °F 75 °F (1915)
Min Temperature 33 °F 36 °F 17 °F (1959)
Degree Days  
Heating Degree Days 27 20  
Month to date heating degree days 156 131  
Since 1 July heating degree days 703 640  
Cooling Degree Days 0 0  
Month to date cooling degree days 0 0  
Year to date cooling degree days 731 809  
Moisture  
Dew Point 31 °F    
Average Humidity 76    
Maximum Humidity 89    
Minimum Humidity 62    
Precipitation  
Precipitation T in 0.10 in 1.72 in (1925)
Month to date precipitation 0.57 0.67  
Year to date precipitation 38.64 33.15  
Snow  
Snow 0.00 in 0.00 in 1.40 in (1991)
Month to date snowfall T 0.2  
Since 1 July snowfall T 0.5  
Since 1 September snowfall T 0.5  
Snow Depth 0.00 in    
Sea Level Pressure  
Sea Level Pressure 30.12 in    
Wind  
Wind Speed 7 mph (WSW)    
Max Wind Speed 20 mph    
Max Gust Speed 24 mph    
Visibility 10 miles    
Events Rain    
T = Trace of Precipitation, MM = Missing Value Source: NWS Daily Summary

Daily Weather History Graph

Daily Weather History Graph

Search for Another Location

Airport:

Trip Planner

Search our weather history database for the weather conditions in past years. The results will help you decide how hot, cold, wet, or windy it might be!

Date:

Astronomy

Nov. 07, 2014 Rise Set
Actual Time 7:18 AM EST 5:29 PM EST
Civil Twilight 6:49 AM EST 5:58 PM EST
Nautical Twilight 6:16 AM EST 6:31 PM EST
Astronomical Twilight 5:44 AM EST 7:03 PM EST
Moon 6:21 PM EST (11/7) 7:53 AM EST (11/7)
Length of Visible Light 11h 08m
Length of Day
10h 11m
Full, 99% of the Moon is Illuminated
Nov 7
Full
Nov 14
Last Quarter
Nov 22
New
Nov 29
First Quarter
Dec 6
Full

Hourly Weather History & Observations

Time (EST) Temp. Windchill Dew Point Humidity Pressure Visibility Wind Dir Wind Speed Gust Speed Precip Events Conditions
12:54 AM 39.0 °F 31.0 °F 30.9 °F 73% 30.11 in 10.0 mi NW 13.8 mph 20.7 mph N/A   Overcast
1:54 AM 36.0 °F 30.3 °F 28.9 °F 76% 30.13 in 10.0 mi NW 6.9 mph - N/A   Scattered Clouds
2:54 AM 34.0 °F 28.8 °F 28.9 °F 82% 30.15 in 10.0 mi WNW 5.8 mph - N/A   Partly Cloudy
3:54 AM 33.1 °F 27.7 °F 28.0 °F 82% 30.16 in 10.0 mi WNW 5.8 mph - N/A   Scattered Clouds
4:54 AM 34.0 °F 28.8 °F 27.0 °F 75% 30.16 in 10.0 mi NW 5.8 mph - N/A   Mostly Cloudy
5:54 AM 35.1 °F 32.2 °F 28.0 °F 76% 30.17 in 10.0 mi WNW 3.5 mph - N/A   Overcast
6:54 AM 34.0 °F 29.8 °F 30.0 °F 85% 30.17 in 10.0 mi West 4.6 mph - N/A   Mostly Cloudy
7:54 AM 35.1 °F 28.6 °F 30.9 °F 85% 30.18 in 10.0 mi West 8.1 mph - N/A   Mostly Cloudy
8:54 AM 37.0 °F 31.6 °F 30.9 °F 79% 30.19 in 10.0 mi West 6.9 mph - N/A   Mostly Cloudy
9:54 AM 37.9 °F 30.5 °F 32.0 °F 79% 30.20 in 10.0 mi West 11.5 mph - N/A   Overcast
10:54 AM 39.9 °F 33.9 °F 32.0 °F 73% 30.20 in 10.0 mi West 9.2 mph - N/A   Overcast
11:54 AM 39.9 °F 33.9 °F 33.1 °F 77% 30.18 in 10.0 mi West 9.2 mph - 0.00 in Rain Light Rain
12:07 PM 39.9 °F 33.9 °F 34.0 °F 79% 30.16 in 10.0 mi West 9.2 mph - 0.00 in Rain Light Rain
12:54 PM 41.0 °F 35.2 °F 33.1 °F 73% 30.15 in 10.0 mi West 9.2 mph - 0.00 in   Overcast
1:20 PM 43.0 °F 38.8 °F 33.1 °F 68% 30.11 in 10.0 mi West 6.9 mph - N/A   Mostly Cloudy
1:27 PM 43.0 °F 38.8 °F 32.0 °F 65% 30.11 in 10.0 mi NW 6.9 mph - N/A   Mostly Cloudy
1:54 PM 42.1 °F 38.4 °F 32.0 °F 67% 30.12 in 10.0 mi North 5.8 mph - N/A   Mostly Cloudy
2:54 PM 42.1 °F 40.2 °F 30.9 °F 65% 30.10 in 10.0 mi SW 3.5 mph - N/A   Overcast
3:54 PM 42.1 °F 38.4 °F 30.0 °F 62% 30.09 in 10.0 mi SW 5.8 mph - N/A   Overcast
4:54 PM 41.0 °F 37.1 °F 30.9 °F 67% 30.07 in 10.0 mi South 5.8 mph - N/A   Mostly Cloudy
5:54 PM 37.0 °F 31.6 °F 30.0 °F 76% 30.06 in 10.0 mi SSW 6.9 mph - N/A   Mostly Cloudy
6:54 PM 37.0 °F 32.4 °F 30.9 °F 79% 30.07 in 10.0 mi SSW 5.8 mph - N/A   Mostly Cloudy
7:54 PM 37.9 °F 35.5 °F 32.0 °F 79% 30.07 in 10.0 mi South 3.5 mph - N/A   Mostly Cloudy
8:54 PM 37.9 °F 33.5 °F 32.0 °F 79% 30.05 in 10.0 mi South 5.8 mph - N/A   Overcast
9:54 PM 37.0 °F 31.0 °F 30.0 °F 76% 30.03 in 10.0 mi South 8.1 mph - N/A   Mostly Cloudy
10:54 PM 37.0 °F 30.4 °F 30.0 °F 76% 29.98 in 10.0 mi SSE 9.2 mph - N/A   Mostly Cloudy
11:54 PM 37.9 °F 30.9 °F 30.0 °F 73% 29.97 in 10.0 mi South 10.4 mph - N/A   Mostly Cloudy